Location: BGSU Observatory
(41.3799°N, 83.6397°W)
Time: 17:42:29
(UTC-04:00)

Amateur Radio Satellites - All Passes

Search period start: 22 October 2014 17:12
Search period end: 23 October 2014 17:12
Location: BGSU Observatory, 41.3799°N, 83.6397°W

Satellite Date Start Highest point End Downlink Frequencies (MHz)
Time Altitude Azimuth
TMSAT-1 22 Oct 17:12:19 17:15:23 15° 270° (W) 17:18:28 436.925 FM
AO-7 22 Oct 17:24:27 17:32:36 62° 256° (WSW) 17:40:49 29.400 - 29.500 MHz
ISS 22 Oct 18:04:04 18:05:58 14° 2° (N) 18:07:52 145.800 FM
KITSAT 1 22 Oct 18:04:09 18:06:14 11° 354° (N) 18:08:19 435.175 FM
JAS-2 22 Oct 18:07:07 18:12:52 70° 72° (ENE) 18:19:27 435.800 - 435.900 CW/SSB, 435.910 FM
Hamsat 22 Oct 18:08:30 18:12:29 42° 72° (ENE) 18:16:27 145.90 MHz
UOSAT-12 22 Oct 18:16:04 18:18:14 13° 325° (NW) 18:20:26 437.025 FM, 437.400 FM
Saudisat 1A 22 Oct 18:20:57 18:25:16 53° 242° (WSW) 18:29:34 436.775 MHz
OPAL 22 Oct 18:24:38 18:29:15 38° 100° (E) 18:33:50 ?
Uosat F 22 Oct 18:33:04 18:36:03 16° 269° (W) 18:39:03 435.120 FM
AO-40 22 Oct 19:25:16 01:28:27 44° 182° (S) 06:00:35 Beacon 2401.320
SO-67 22 Oct 19:32:29 19:35:45 43° 74° (ENE) 19:39:03 435.3500 MHz FM
ISS 22 Oct 19:40:39 19:43:32 26° 22° (NNE) 19:46:24 145.800 FM
Hamsat 22 Oct 19:46:01 19:48:37 16° 268° (W) 19:51:13 145.90 MHz
JAS-2 22 Oct 19:55:01 19:58:46 17° 273° (W) 20:02:48 435.800 - 435.900 CW/SSB, 435.910 FM
KITSAT 1 22 Oct 20:01:05 20:05:54 17° 26° (NNE) 20:10:42 435.175 FM
OPAL 22 Oct 20:03:54 20:07:57 26° 297° (WNW) 20:11:58 ?
STRAND 1 22 Oct 20:04:47 20:09:44 45° 99° (E) 20:14:39 ?
HO-68 22 Oct 20:48:37 20:55:11 41° 64° (ENE) 21:01:48 435.675 MHz FM
UKube-1 22 Oct 21:09:00 21:11:16 14° 62° (ENE) 21:13:32 145.840 MHz, 145.915 MHz
ISS 22 Oct 21:17:07 21:20:24 52° 220° (SW) 21:23:38 145.800 FM
FUNcube-1 22 Oct 21:44:34 21:46:42 13° 63° (ENE) 21:48:50 145.950 - 145.970 MHz USB
STRAND 1 22 Oct 21:44:38 21:48:37 23° 296° (WNW) 21:52:35 ?
SO-50 22 Oct 21:46:31 21:49:58 19° 41° (NE) 21:53:26 436.795 FM
Oscar 11 22 Oct 21:50:50 21:54:41 32° 70° (ENE) 21:58:32 145.825 FM, Beacon 2401.500 USB
KITSAT 1 22 Oct 21:55:40 22:03:30 50° 51° (NE) 22:11:17 435.175 FM
ZACube-1 22 Oct 22:32:56 22:37:14 40° 71° (ENE) 22:41:30 437.345 MHz
HO-68 22 Oct 22:36:17 22:42:52 39° 262° (W) 22:49:31 435.675 MHz FM
UKube-1 22 Oct 22:42:41 22:46:57 58° 259° (W) 22:51:16 145.840 MHz, 145.915 MHz
RS-15 22 Oct 22:49:38 22:59:58 49° 111° (ESE) 23:10:11 29.354 - 29.394 USB, Beacon 29.352 USB
FUNcube-1 22 Oct 23:17:57 23:22:31 68° 259° (WSW) 23:27:04 145.950 - 145.970 MHz USB
UOSAT-12 22 Oct 23:23:11 23:26:13 17° 39° (NE) 23:29:13 437.025 FM, 437.400 FM
SO-50 22 Oct 23:26:11 23:31:01 71° 240° (WSW) 23:35:52 436.795 FM
Oscar 11 22 Oct 23:27:30 23:30:53 22° 266° (W) 23:34:18 145.825 FM, Beacon 2401.500 USB
KITSAT 1 22 Oct 23:51:24 23:58:42 39° 251° (WSW) 00:06:00 435.175 FM
ZACube-1 23 Oct 00:10:23 00:13:45 20° 267° (W) 00:17:07 437.345 MHz
MaSat-1 23 Oct 00:31:21 00:35:05 31° 110° (ESE) 00:38:33 437.345 MHz
RS-15 23 Oct 01:01:38 01:12:13 52° 314° (NW) 01:22:53 29.354 - 29.394 USB, Beacon 29.352 USB
UOSAT-12 23 Oct 01:02:14 01:06:59 82° 238° (WSW) 01:11:37 437.025 FM, 437.400 FM
MaSat-1 23 Oct 02:07:28 02:10:47 23° 303° (WNW) 02:13:53 437.345 MHz
Oscar 19 23 Oct 02:19:37 02:23:46 25° 94° (E) 02:27:54 437.125 CW, 437.150 USB
AO-27 23 Oct 02:33:19 02:35:47 13° 90° (E) 02:38:15 436.795 MHz FM
Oscar 16 23 Oct 03:04:20 03:09:28 68° 102° (ESE) 03:14:32 437.025 USB, Beacon 2401.1428
JAS-1B 23 Oct 03:05:15 03:11:44 58° 102° (ESE) 03:19:28 435.800 - 435.900 CW/SSB
AO-Echo 23 Oct 03:16:27 03:21:34 47° 99° (E) 03:26:40 ?
RS-15 23 Oct 03:19:55 03:28:00 23° 345° (NNW) 03:36:12 29.354 - 29.394 USB, Beacon 29.352 USB
Uribyol 2 23 Oct 03:20:15 03:25:08 40° 98° (E) 03:29:59 436.500 FM
ITAMSAT 1 23 Oct 03:25:41 03:30:38 42° 99° (E) 03:35:33 435.822 SSB
Gurwin Techsat 1B 23 Oct 03:33:28 03:37:55 27° 95° (E) 03:42:21 435.225 FM
TMSAT-1 23 Oct 03:46:07 03:50:32 26° 94° (E) 03:54:54 436.925 FM
Oscar 19 23 Oct 03:58:29 04:03:13 39° 291° (WNW) 04:07:57 437.125 CW, 437.150 USB
AO-27 23 Oct 04:10:36 04:15:50 74° 286° (WNW) 04:21:02 436.795 MHz FM
Sapphire 23 Oct 04:43:07 04:48:07 40° 111° (ESE) 04:53:09 437.095 MHz 1200 baud AX-25 AFSK
Oscar 16 23 Oct 04:45:13 04:48:14 16° 299° (WNW) 04:51:15 437.025 USB, Beacon 2401.1428
AO-Echo 23 Oct 04:55:53 05:00:01 24° 295° (WNW) 05:04:09 ?
JAS-1B 23 Oct 04:56:51 05:02:06 27° 296° (WNW) 05:08:05 435.800 - 435.900 CW/SSB
Uribyol 2 23 Oct 05:00:08 05:04:24 26° 295° (WNW) 05:08:38 436.500 FM
Uosat F 23 Oct 05:00:40 05:04:07 18° 92° (E) 05:07:33 435.120 FM
PCSat 23 Oct 05:05:27 05:10:49 68° 116° (ESE) 05:16:13 145.825 MHz
ITAMSAT 1 23 Oct 05:05:41 05:09:53 25° 295° (WNW) 05:14:03 435.822 SSB
Gurwin Techsat 1B 23 Oct 05:13:04 05:17:58 39° 291° (WNW) 05:22:51 435.225 FM
JAS-2 23 Oct 05:18:39 05:21:36 12° 84° (E) 05:24:33 435.800 - 435.900 CW/SSB, 435.910 FM
TMSAT-1 23 Oct 05:25:37 05:30:32 40° 291° (WNW) 05:35:26 436.925 FM
AO-7 23 Oct 05:25:50 05:33:46 46° 100° (E) 05:41:40 29.400 - 29.500 MHz
RS-15 23 Oct 05:37:03 05:45:42 25° 22° (NNE) 05:54:33 29.354 - 29.394 USB, Beacon 29.352 USB
OPAL 23 Oct 05:39:20 05:44:29 72° 72° (ENE) 05:49:35 ?
AO-27 23 Oct 05:54:09 05:54:24 10° 304° (NW) 05:54:40 436.795 MHz FM
Sapphire 23 Oct 06:26:50 06:31:37 31° 310° (NW) 06:36:26 437.095 MHz 1200 baud AX-25 AFSK
Uosat F 23 Oct 06:38:17 06:43:11 52° 289° (WNW) 06:48:04 435.120 FM
PCSat 23 Oct 06:50:42 06:54:44 21° 315° (NW) 06:58:48 145.825 MHz
JAS-2 23 Oct 07:00:02 07:07:46 69° 101° (ESE) 07:15:34 435.800 - 435.900 CW/SSB, 435.910 FM
AO-7 23 Oct 07:18:49 07:26:26 42° 299° (WNW) 07:34:03 29.400 - 29.500 MHz
STRAND 1 23 Oct 07:20:41 07:25:45 66° 73° (ENE) 07:30:51 ?
OPAL 23 Oct 07:21:15 07:23:49 14° 267° (W) 07:26:23 ?
Hamsat 23 Oct 07:29:30 07:33:43 88° 105° (ESE) 07:37:55 145.90 MHz
RS-15 23 Oct 07:49:50 08:00:53 63° 51° (NE) 08:12:23 29.354 - 29.394 USB, Beacon 29.352 USB
Saudisat 1A 23 Oct 08:27:20 08:31:22 37° 116° (ESE) 08:35:26 436.775 MHz
SO-67 23 Oct 08:28:20 08:31:44 52° 100° (E) 08:35:05 435.3500 MHz FM
JAS-2 23 Oct 08:45:56 08:52:10 28° 299° (WNW) 08:58:30 435.800 - 435.900 CW/SSB, 435.910 FM
STRAND 1 23 Oct 09:02:35 09:05:23 15° 270° (W) 09:08:13 ?
RS-15 23 Oct 10:02:45 10:12:45 40° 252° (WSW) 10:23:11 29.354 - 29.394 USB, Beacon 29.352 USB
HO-68 23 Oct 10:03:16 10:10:01 41° 99° (E) 10:16:42 435.675 MHz FM
Saudisat 1A 23 Oct 10:07:20 10:11:01 26° 314° (NW) 10:14:44 436.775 MHz
PANSAT 23 Oct 10:16:55 10:18:13 11° 176° (S) 10:19:32 not established
MaSat-1 23 Oct 10:17:34 10:20:09 44° 61° (ENE) 10:22:30 437.345 MHz
UKube-1 23 Oct 10:31:18 10:34:48 23° 95° (E) 10:38:16 145.840 MHz, 145.915 MHz
FUNcube-1 23 Oct 11:07:54 11:11:14 22° 94° (E) 11:14:30 145.950 - 145.970 MHz USB
Oscar 11 23 Oct 11:13:50 11:18:08 65° 101° (E) 11:22:24 145.825 FM, Beacon 2401.500 USB
HO-68 23 Oct 11:51:05 11:57:38 40° 296° (WNW) 12:04:10 435.675 MHz FM
PANSAT 23 Oct 11:57:07 11:57:34 10° 189° (S) 11:58:01 not established
ZACube-1 23 Oct 11:58:16 12:02:34 84° 103° (ESE) 12:06:45 437.345 MHz
UKube-1 23 Oct 12:07:08 12:11:01 32° 291° (WNW) 12:14:52 145.840 MHz, 145.915 MHz
PCSat 23 Oct 12:12:24 12:14:02 11° 35° (NE) 12:15:41 145.825 MHz
KITSAT 1 23 Oct 12:24:48 12:31:42 32° 107° (ESE) 12:38:36 435.175 FM
FUNcube-1 23 Oct 12:43:53 12:47:39 30° 291° (WNW) 12:51:19 145.950 - 145.970 MHz USB
Oscar 16 23 Oct 12:45:33 12:47:52 13° 59° (ENE) 12:50:11 437.025 USB, Beacon 2401.1428
Oscar 11 23 Oct 12:52:00 12:53:46 12° 298° (WNW) 12:55:31 145.825 FM, Beacon 2401.500 USB
Sapphire 23 Oct 13:30:49 13:35:47 34° 51° (NE) 13:40:42 437.095 MHz 1200 baud AX-25 AFSK
Oscar 19 23 Oct 13:36:26 13:41:07 37° 69° (ENE) 13:45:48 437.125 CW, 437.150 USB
SO-50 23 Oct 13:41:23 13:45:29 36° 115° (ESE) 13:49:42 436.795 FM
AO-27 23 Oct 13:50:59 13:54:55 22° 64° (ENE) 13:58:53 436.795 MHz FM
JAS-1B 23 Oct 13:52:22 13:58:00 44° 69° (ENE) 14:03:21 435.800 - 435.900 CW/SSB
PCSat 23 Oct 13:53:22 13:58:43 55° 57° (ENE) 14:04:01 145.825 MHz
ISS 23 Oct 13:59:02 14:02:14 47° 139° (SE) 14:05:28 145.800 FM
Oscar 10/S400 23 Oct 14:10:51 14:28:32 35° 152° (SSE) 14:48:40 145.825 - 145.975 CW/USB, Beacon 145.810 USB
KITSAT 1 23 Oct 14:18:42 14:26:39 59° 306° (NW) 14:34:38 435.175 FM
Oscar 16 23 Oct 14:21:19 14:26:30 84° 256° (WSW) 14:31:41 437.025 USB, Beacon 2401.1428
AO-Echo 23 Oct 14:29:30 14:34:15 58° 72° (ENE) 14:39:12 ?
AO-7 23 Oct 14:37:34 14:41:37 15° 45° (NE) 14:45:40 29.400 - 29.500 MHz
Uribyol 2 23 Oct 14:38:03 14:43:10 61° 72° (ENE) 14:48:20 436.500 FM
ITAMSAT 1 23 Oct 14:43:39 14:48:47 64° 73° (ENE) 14:53:58 435.822 SSB
Gurwin Techsat 1B 23 Oct 14:54:29 14:59:27 42° 70° (ENE) 15:04:27 435.225 FM
TMSAT-1 23 Oct 15:06:48 15:11:43 41° 69° (ENE) 15:16:40 436.925 FM
UOSAT-12 23 Oct 15:13:48 15:17:47 29° 113° (ESE) 15:21:51 437.025 FM, 437.400 FM
Sapphire 23 Oct 15:14:16 15:19:11 36° 250° (WSW) 15:24:04 437.095 MHz 1200 baud AX-25 AFSK
Oscar 19 23 Oct 15:16:10 15:20:30 27° 265° (W) 15:24:51 437.125 CW, 437.150 USB
SO-50 23 Oct 15:22:11 15:26:05 28° 314° (NW) 15:30:06 436.795 FM
AO-27 23 Oct 15:29:04 15:34:05 48° 260° (W) 15:39:09 436.795 MHz FM
ISS 23 Oct 15:36:08 15:39:03 27° 337° (NNW) 15:41:59 145.800 FM
PCSat 23 Oct 15:37:43 15:41:42 21° 254° (WSW) 15:45:39 145.825 MHz
JAS-1B 23 Oct 15:44:11 15:48:55 24° 265° (W) 15:53:27 435.800 - 435.900 CW/SSB
AO-Echo 23 Oct 16:10:33 16:13:27 16° 270° (W) 16:16:25 ?
Uosat F 23 Oct 16:13:51 16:17:59 26° 66° (ENE) 16:22:08 435.120 FM
KITSAT 1 23 Oct 16:18:37 16:23:56 19° 331° (NNW) 16:29:17 435.175 FM
Uribyol 2 23 Oct 16:19:48 16:23:03 17° 269° (W) 16:26:18 436.500 FM
AO-7 23 Oct 16:24:40 16:32:46 63° 66° (ENE) 16:40:54 29.400 - 29.500 MHz
ITAMSAT 1 23 Oct 16:25:42 16:28:43 16° 269° (W) 16:31:46 435.822 SSB
Gurwin Techsat 1B 23 Oct 16:35:18 16:39:34 24° 266° (W) 16:43:51 435.225 FM
TMSAT-1 23 Oct 16:47:26 16:51:45 25° 266° (W) 16:56:07 436.925 FM
UOSAT-12 23 Oct 16:53:35 16:57:50 35° 311° (NW) 17:02:11 437.025 FM, 437.400 FM
Saudisat 1A 23 Oct 16:53:45 16:57:46 33° 49° (NE) 17:01:46 436.775 MHz
